Regional Weather Roundup
Issued by NWS Little Rock, AR

Home | Current Version | Previous Version | Graphics & Text | Print | Product List | Glossary On
Versions: 1 2 3 4 5 6 7 8 9 10 11 12 13 14 15 16 17 18 19 20 21 22 23 24 25 26 27
000
ASUS44 KLZK 250805
RWRLZK

WEATHER ROUNDUP FOR ARKANSAS
NATIONAL WEATHER SERVICE LITTLE ROCK AR
300 AM CDT SAT OCT 25 2014

NOTE: "FAIR" INDICATES FEW OR NO CLOUDS BELOW 12,000 FEET WITH NO
SIGNIFICANT WEATHER AND/OR OBSTRUCTIONS TO VISIBILITY.

ARZ001-003-010-029-250900-
NORTHWEST ARKANSAS

CITY           SKY/WX    TMP DP  RH WIND       PRES   REMARKS
FAYETTEVILLE   CLEAR     57  56  96 S6        30.09S
FORT SMITH     CLEAR     60  58  92 CALM      30.08S FOG
HARRISON       CLEAR     66  60  81 VRB5      30.07S HAZE
BENTONVILLE    CLEAR     57  54  88 S3        30.08S
ROGERS         CLEAR     62  58  86 SW9       30.09S
SILOAM SPGS    CLEAR     61  54  77 S5        30.09S
HIGHFILL       CLEAR     58  56  93 S5        30.08S FOG
$$

ARZ004-005-016-250900-
NORTH CENTRAL ARKANSAS

CITY           SKY/WX    TMP DP  RH WIND       PRES   REMARKS
BATESVILLE     CLEAR     63  57  82 SW6       30.06S
FLIPPIN          N/A     55  50  82 CALM      30.06S VSB 3/4
MTN HOME       CLEAR     60  57  89 CALM      30.06R
$$

ARZ040-041-250900-
WEST CENTRAL ARKANSAS

CITY           SKY/WX    TMP DP  RH WIND       PRES   REMARKS
MENA           CLEAR     59  59 100 CALM      30.13S
MOUNT IDA      CLEAR     56  54  93 CALM      30.09S FOG
$$

ARZ009-017-025-026-028-250900-
NORTHEAST ARKANSAS

CITY           SKY/WX    TMP DP  RH WIND       PRES   REMARKS
CORNING        FAIR      57  55  94 SW5       30.06R
JONESBORO      CLEAR     61  56  83 W5        30.06S
NEWPORT        CLEAR     56  55  96 S7        30.07F
WALNUT RIDGE   CLEAR     55  52  88 SW6       30.05S
BLYTHEVILLE    CLEAR     57  55  93 SW7       30.06F
$$

ARZ022-023-033-042-044-250900-
CENTRAL ARKANSAS

CITY           SKY/WX    TMP DP  RH WIND       PRES   REMARKS
LITTLE ROCK    CLEAR     58  54  86 SW3       30.09F
N LITTLE ROCK    N/A     63  60  90 SW6       30.09F
JACKSONVILLE   CLEAR     53  51  95 CALM      30.08F
SEARCY         CLEAR     54  53  97 CALM      30.09S FOG
HOT SPRINGS    CLEAR     56  55  97 CALM      30.11F FOG
RUSSELLVILLE   CLEAR     56  55  97 CALM      30.08S FOG
$$

ARZ036-250900-
EAST ARKANSAS

CITY           SKY/WX    TMP DP  RH WIND       PRES   REMARKS
WEST MEMPHIS   CLEAR     54  54 100 S3        30.07S
$$

ARZ050-053-066-070-073-250900-
SOUTHWEST ARKANSAS

CITY           SKY/WX    TMP DP  RH WIND       PRES   REMARKS
ARKADELPHIA    CLOUDY    54  54 100 CALM      30.12F FOG
CAMDEN         CLEAR     50  48  93 CALM      30.12S FOG
TEXARKANA      CLEAR     59  56  89 S5        30.12S
EL DORADO      CLEAR     50  49  96 CALM      30.13F
DE QUEEN       FOG       55  54  96 CALM      30.11S VSB 1/4
$$

ARZ056-057-069-250900-
SOUTHEAST ARKANSAS

CITY           SKY/WX    TMP DP  RH WIND       PRES   REMARKS
PINE BLUFF     CLEAR     57  53  86 SW3       30.11S
STUTTGART      CLEAR     55  52  88 SW7       30.10S
MONTICELLO     CLEAR     57  54  89 W6        30.11F

$$





USA.gov is the U.S. government's official web portal to all federal, state and local government web resources and services.